Tracking 30923 objects as of 1-Jul-2025
HD Live streaming from Space Station
objects crossing your sky now

FENGYUN 1C DEB

Track FENGYUN 1C DEB now!
10-day predictions


NORAD ID: 30570
Int'l Code: 1999-025ALL
Perigee: 828.1 km
Apogee: 878.0 km
Inclination: 98.7 °
Period: 101.8 minutes
Semi major axis: 7224 km
RCS: 0.044 m2 (small)
Launch date: May 10, 1999
Source: People's Republic of China (PRC)
Launch site: Taiyaun Space Center, China (TSC)

Note: This is SATELLITE DEBRIS
Your satellite tracking list
SHIYAN 21 (SY-21)
Track 1 satellite(s)




NASA's NSSDC Master Catalog

Two Line Element Set (TLE):
1 30570U 99025ALL 25181.11016650  .00000429  00000-0  24750-3 0  9993
2 30570  98.7310 217.5327 0034563 327.5031  98.6793 14.13936311946579
Source of the keplerian elements: AFSPC